{"data":{"norad_id":53316,"intl_designator":"2022-088A","name":"YAOGAN-35 03A","alt_names":[],"object_type":"PAYLOAD","status":"ACTIVE","operator":null,"country":"PRC","launch_date":"2022-07-29","launch_site_code":"XICLF","launch_vehicle":null,"mission":null,"orbit_class":"UNKNOWN","rcs_meters":null,"size_class":null,"mass_kg":null,"dimensions":null,"purposes":[],"wikipedia_slug":null,"has_3d_model":false,"image_url":null,"decayed_at":null,"tle_current":{"epoch":"2026-05-25T05:36:34.396416Z","epoch_age_seconds":65031,"freshness":"FRESH","line1":"1 53316U 22088A   26145.23373144  .00188092  00000+0  92496-3 0  9993","line2":"2 53316  35.0078 196.4523 0011594 191.7060 168.3404 15.80548120214464","mean_motion":15.8054812,"eccentricity":0.0011594,"inclination_deg":35.0078,"raan_deg":196.4523,"arg_perigee_deg":191.706,"mean_anomaly_deg":168.3404,"bstar":0.00092496,"rev_number":21446,"period_min":91.10763423008,"perigee_km":321.11343557969,"apogee_km":336.66568877206,"semimajor_km":6707.0265621759,"source":"CELESTRAK","updated_at":"2026-05-25T13:37:58.151357Z"}}}